Lexington Weather

Lexington, Massachusetts, USA

45°F
4/22/2024 9:25am 
  • Lexington Conditions: Clear
  • Temperature: 44.6°F / 7.0°CWarmer 2.3°F than last hour.
  • Dew Point: 25.7°FDecreased 1.6°Fsince last hour.
  • Relative Humidity: 47%Decreased 8.0% since last hour.
  • Wind: Calm, 10-min avg: Calm, gust: 6 mph
  • Barometer: 29.96 in Steady
  • Visibility: 10 miles
  • Rain Today: 0.00 in
  •   

Regional Weather Roundup
for Boston, MA

        
000
ASUS41 KBOX 182210
RWRBOX

REGIONAL WEATHER ROUNDUP
NATIONAL WEATHER SERVICE BOSTON/NORTON MA
600 PM EDT THU APR 18 2024

NOTE:  "FAIR" INDICATES FEW OR NO CLOUDS BELOW 12,000 FEET WITH NO 
SIGNIFICANT WEATHER AND/OR OBSTRUCTIONS TO VISIBILITY.

MAZALL-182300-
EASTERN MASSACHUSETTS
  
CITY           SKY/WX    TMP DP  RH WIND       PRES   REMARKS
BOSTON         LGT RAIN  45  41  86 NE9       30.20R                  
BEVERLY        LGT RAIN  44  41  89 NE7       30.19S                  
LAWRENCE       LGT RAIN  45  42  89 NE6       30.22R                  
BEDFORD        LGT RAIN  44  40  85 N3        30.18S                  
NORWOOD        LGT RAIN  46  41  82 NE5       30.19R                  
MARSHFIELD     LGT RAIN  45  43  93 VRB5      30.18S                  
PLYMOUTH       CLOUDY    45  41  86 NE10      30.16R                  
TAUNTON        RAIN      46  41  82 VRB3      30.18R                  
NEW BEDFORD    CLOUDY    48  37  65 NE9       30.16R                  
$$

MAZALL-182300-
CAPE COD AND THE ISLANDS
  
CITY           SKY/WX    TMP DP  RH WIND       PRES   REMARKS
FALMOUTH       CLOUDY    46  41  81 NE12      30.16R                  
HYANNIS        CLOUDY    47  36  65 E12       30.14R                  
CHATHAM        CLOUDY    46  40  79 NE8       30.16R                  
PROVINCETOWN   LGT RAIN  45  41  86 E10       30.18S                  
NANTUCKET      CLOUDY    45  40  82 NE14G23   30.12R                  
MARTHAS VNYRD  CLOUDY    47  41  80 NE13      30.14R                  
$$
 
MAZALL-182300-
CENTRAL AND WESTERN MASSACHUSETTS
  
CITY           SKY/WX    TMP DP  RH WIND       PRES   REMARKS
WORCESTER      LGT RAIN  42  39  89 NE5       30.16R                  
FITCHBURG      CLOUDY    44  38  79 CALM      30.20R                  
ORANGE         CLOUDY    45  36  70 CALM      30.19S                  
SPRINGFIELD    CLOUDY    45  38  75 NE8       30.16R                  
WESTFIELD      CLOUDY    46  39  76 N7        30.18R                  
NORTH ADAMS    CLOUDY    47  38  71 E15       30.15S                  
PITTSFIELD     CLOUDY    43  34  70 VRB7G16   30.11F                  
$$
 
RIZALL-182300-
RHODE ISLAND
  
CITY           SKY/WX    TMP DP  RH WIND       PRES   REMARKS
PROVIDENCE     LGT RAIN  45  41  86 N8        30.17S                  
NEWPORT        CLOUDY    47  36  65 NE9       30.15R                  
BLOCK ISLAND   LGT RAIN  44  39  82 NE12      30.14S                  
SMITHFIELD     LGT RAIN  43  42  97 NE6       30.17S                  
WESTERLY       LGT RAIN  45  40  82 N8        30.15R                  
$$
 
CTZALL-182300-
CONNECTICUT
  
CITY           SKY/WX    TMP DP  RH WIND       PRES   REMARKS
BRADLEY INTL   CLOUDY    47  38  71 NE7       30.19R                  
HARTFORD       CLOUDY    46  41  82 N7        30.18R                  
PLAINVILLE     CLOUDY    44  42  89 NE8       30.16S                  
BRIDGEPORT     CLOUDY    48  40  73 E18       30.11F                  
DANBURY        CLOUDY    46  38  73 NE10      30.14S                  
GROTON         LGT RAIN  46  43  89 N8        30.15R                  
NEW HAVEN      CLOUDY    48  42  80 NE9       30.16R                  
CHESTER        CLOUDY    43  43 100 N6        30.15S                  
MERIDEN        CLOUDY    45  39  79 N6        30.17R                  
WILLIMANTIC    CLOUDY    44  41  89 NE6       30.17S                  
OXFORD         CLOUDY    43  39  87 NE12      30.13F                  
$$

MEZ002-015-021-024-NHZ003-005-008-011-012-014-VTZ005-008-182300-
NORTHERN NEW ENGLAND
  
CITY           SKY/WX    TMP DP  RH WIND       PRES   REMARKS
PORTLAND ME    PTSUNNY   47  37  68 SE7       30.21F                  
BANGOR ME      FAIR      55  33  43 S14       30.17R                  
CONCORD NH     CLOUDY    44  40  85 S5        30.21R                  
MANCHESTER NH  CLOUDY    46  40  79 NE3       30.19S                  
NASHUA NH      LGT RAIN  45  45 100 E3        30.21R                  
PORTSMOUTH NH  LGT RAIN  46  42  85 E5        30.20S                  
JAFFREY NH     CLOUDY    44  39  82 N3        30.17S                  
KEENE NH       CLOUDY    44  40  85 NW3       30.19S                  
BURLINGTON VT  CLOUDY    45  41  86 S7        30.13F                  
MT. WASHINGTON SNOW      32  32 100 W12         N/A  VSB 1/16WCI  23  
$$

NYZ052-076-182300-
EASTERN NEW YORK
  
CITY           SKY/WX    TMP DP  RH WIND       PRES   REMARKS
ALBANY         CLOUDY    48  36  63 SE8       30.16S                  
NEW YORK CITY  CLOUDY    47  39  74 NE17      30.13S                  
$$
 
ANZALL-182300-
MARINE OBSERVATIONS
  
STATION/POSITION TIME  TEMP    WIND        PRES    VSBY  WAVE
                       AIR SEA DIR/SP/G                  HT/PER
                 (UTC) (F)     (DEG/KT/KT) (MB)    (MI)  (FT/S)
BOSTON BUOY      2150   44      40/  8/ 10 1022.0S         2/ 4
BUZZARDS BAY     2100   46      60/ 17/ 18 1020.7R
NANTUCKET SOUND  2150   46 47   60/ 17/ 19 1020.2R         3/ 4
MASS BAY-STELLWA 2004   45 45   50/  8/ 10 1022.5R  1 7/8  2/ 4
ISLE OF SHOALS   2100   44      60/  5/  6 1022.3R
S OF BLOCK IS    2156      44                N/A           6/ 6
$$

......................KEY.........................
  SKY/WX - SKY CONDITION/PRESENT WEATHER
  TMP    - TEMPERATURE IN FAHRENHEIT
  DWPT   - DEWPOINT IN FAHRENHEIT
  RH     - RELATIVE HUMIDITY IN PERCENT
  WIND   - DIRECTION AND SPEED IN MPH
  PRES   - MEAN SEA LEVEL PRESSURE IN INCHES OF HG
  WCI    - WIND CHILL INDEX
  VSB    - VISIBILITY IN MILES
  HX     - HEAT INDEX
  TC     - TEMPERATURE IN CELSIUS
  VRB    - VARIABLE WIND DIRECTION
  N/A    - NOT AVAILABLE
  
      

Other recent Regional Weather Roundups

Mon Apr 22, 9:10am EDT

Mon Apr 22, 8:10am EDT

Mon Apr 22, 7:10am EDT

Mon Apr 22, 6:10am EDT

Mon Apr 22, 5:10am EDT

Mon Apr 22, 4:10am EDT

Mon Apr 22, 3:10am EDT

Mon Apr 22, 2:10am EDT

Mon Apr 22, 1:10am EDT

Mon Apr 22, 12:10am EDT

Sun Apr 21, 11:10pm EDT

Sun Apr 21, 10:10pm EDT

Sun Apr 21, 9:10pm EDT

Sun Apr 21, 8:10pm EDT

Sun Apr 21, 7:10pm EDT

Sun Apr 21, 6:10pm EDT

Sun Apr 21, 5:10pm EDT

Sun Apr 21, 4:10pm EDT

Sun Apr 21, 3:10pm EDT

Sun Apr 21, 2:10pm EDT

Sun Apr 21, 1:10pm EDT

Sun Apr 21, 12:10pm EDT

Sun Apr 21, 11:10am EDT

Sun Apr 21, 10:10am EDT

Sun Apr 21, 9:10am EDT

Sun Apr 21, 8:10am EDT

Sun Apr 21, 7:10am EDT

Sun Apr 21, 6:10am EDT

Sun Apr 21, 5:10am EDT

Sun Apr 21, 4:10am EDT

Sun Apr 21, 3:10am EDT

Sun Apr 21, 2:10am EDT

Sun Apr 21, 1:10am EDT

Sun Apr 21, 12:10am EDT

Sat Apr 20, 11:10pm EDT

Sat Apr 20, 10:10pm EDT

Sat Apr 20, 9:10pm EDT

Sat Apr 20, 8:10pm EDT

Sat Apr 20, 7:10pm EDT

Sat Apr 20, 6:10pm EDT

Sat Apr 20, 5:10pm EDT

Sat Apr 20, 4:10pm EDT

Sat Apr 20, 3:10pm EDT

Sat Apr 20, 2:10pm EDT

Sat Apr 20, 1:10pm EDT

Sat Apr 20, 12:10pm EDT

Sat Apr 20, 11:10am EDT

Sat Apr 20, 10:10am EDT

Sat Apr 20, 9:10am EDT

Sat Apr 20, 8:10am EDT

Sat Apr 20, 7:10am EDT

Sat Apr 20, 6:10am EDT

Sat Apr 20, 5:10am EDT

Sat Apr 20, 4:10am EDT

Sat Apr 20, 3:10am EDT

Sat Apr 20, 2:10am EDT

Sat Apr 20, 1:10am EDT

Sat Apr 20, 12:10am EDT

Fri Apr 19, 11:10pm EDT

Fri Apr 19, 10:10pm EDT

Fri Apr 19, 9:10pm EDT

Fri Apr 19, 8:10pm EDT

Fri Apr 19, 7:10pm EDT

Fri Apr 19, 6:10pm EDT

Fri Apr 19, 5:10pm EDT

Fri Apr 19, 4:10pm EDT

Fri Apr 19, 3:10pm EDT

Fri Apr 19, 2:10pm EDT

Fri Apr 19, 1:10pm EDT

Fri Apr 19, 12:10pm EDT

Fri Apr 19, 11:10am EDT

Fri Apr 19, 10:10am EDT

Fri Apr 19, 9:10am EDT

Fri Apr 19, 8:10am EDT

Fri Apr 19, 7:10am EDT

Fri Apr 19, 6:10am EDT

Fri Apr 19, 5:10am EDT

Fri Apr 19, 4:10am EDT

Fri Apr 19, 3:10am EDT

Fri Apr 19, 2:10am EDT

Fri Apr 19, 1:10am EDT

Fri Apr 19, 12:10am EDT

Thu Apr 18, 11:10pm EDT

Thu Apr 18, 10:10pm EDT

Thu Apr 18, 9:10pm EDT

Thu Apr 18, 8:10pm EDT

Thu Apr 18, 7:10pm EDT

Thu Apr 18, 5:10pm EDT

Thu Apr 18, 4:10pm EDT

Thu Apr 18, 3:10pm EDT

Thu Apr 18, 2:10pm EDT

Thu Apr 18, 1:10pm EDT

Thu Apr 18, 12:10pm EDT

Thu Apr 18, 11:10am EDT

Thu Apr 18, 10:10am EDT

Thu Apr 18, 9:10am EDT

Thu Apr 18, 8:10am EDT

Thu Apr 18, 7:10am EDT

Thu Apr 18, 6:10am EDT

Thu Apr 18, 5:10am EDT

Thu Apr 18, 4:10am EDT

Thu Apr 18, 3:10am EDT

Thu Apr 18, 2:10am EDT

Thu Apr 18, 1:10am EDT

Thu Apr 18, 12:10am EDT

Wed Apr 17, 11:10pm EDT

Wed Apr 17, 10:10pm EDT

Wed Apr 17, 9:10pm EDT

Wed Apr 17, 8:10pm EDT

Wed Apr 17, 7:10pm EDT

Wed Apr 17, 6:10pm EDT

Wed Apr 17, 5:10pm EDT

Wed Apr 17, 4:10pm EDT

Wed Apr 17, 3:10pm EDT

Wed Apr 17, 2:10pm EDT

Wed Apr 17, 1:10pm EDT

Wed Apr 17, 12:10pm EDT

Wed Apr 17, 11:10am EDT

Wed Apr 17, 10:10am EDT

Wed Apr 17, 9:10am EDT

Wed Apr 17, 8:10am EDT

Wed Apr 17, 7:10am EDT

Wed Apr 17, 6:10am EDT

Wed Apr 17, 5:10am EDT

Wed Apr 17, 4:10am EDT

Wed Apr 17, 3:10am EDT

Wed Apr 17, 2:10am EDT

Wed Apr 17, 1:10am EDT

Wed Apr 17, 12:10am EDT

Tue Apr 16, 11:10pm EDT

Tue Apr 16, 10:10pm EDT

Tue Apr 16, 9:10pm EDT

Tue Apr 16, 8:10pm EDT

Tue Apr 16, 7:10pm EDT

Tue Apr 16, 6:10pm EDT

Tue Apr 16, 5:10pm EDT

Tue Apr 16, 4:10pm EDT

Tue Apr 16, 3:10pm EDT

Tue Apr 16, 2:10pm EDT

Tue Apr 16, 1:10pm EDT

Tue Apr 16, 12:10pm EDT

Tue Apr 16, 11:10am EDT

Tue Apr 16, 10:10am EDT

Tue Apr 16, 9:10am EDT

Tue Apr 16, 8:10am EDT

Tue Apr 16, 7:10am EDT

Tue Apr 16, 6:10am EDT

Tue Apr 16, 5:10am EDT

Tue Apr 16, 4:10am EDT

Tue Apr 16, 3:10am EDT

Tue Apr 16, 2:10am EDT

Tue Apr 16, 1:10am EDT

Tue Apr 16, 12:10am EDT

Mon Apr 15, 11:10pm EDT

Mon Apr 15, 10:10pm EDT

Mon Apr 15, 9:10pm EDT

Mon Apr 15, 8:10pm EDT

Mon Apr 15, 7:10pm EDT

Mon Apr 15, 6:10pm EDT

Mon Apr 15, 5:10pm EDT

Mon Apr 15, 4:10pm EDT

Mon Apr 15, 3:10pm EDT

Mon Apr 15, 2:10pm EDT

Mon Apr 15, 1:10pm EDT

Mon Apr 15, 12:10pm EDT

Mon Apr 15, 11:10am EDT

Mon Apr 15, 10:10am EDT